Home   Weather   Husum   Past weeks

Flag for Germany Past Weather in Husum, Schleswig-Holstein, Germany — Yesterday and Last 2 Weeks

Now
55 °F

Refreshingly cool.


Feels Like: 51 °F
Forecast: 42 / 54 °F
Wind: 20 mph from Southeast

Location: Schleswig-Jagel

Current Time: Apr 30, 2017 at 7:03:12 pm

Latest Report: Apr 30, 2017 at 6:20 pm


Visibility: N/A

Pressure: 30.01 "Hg

Humidity: 47%

Dew Point: 36 °F

Location of HusumLocation

Past Weather in Husum — Graph

°F

Husum Temperature Yesterday

Maximum temperature yesterday: 48 °F (at 5:20 pm)
Minimum temperature yesterday: 34 °F (at 4:20 am)
Average temperature yesterday: 41 °F

High & Low Weather Summary for the Past Weeks

 TemperatureHumidityPressure
High55 °F (Apr 30, 4:20 pm)100% (Apr 18, 2:20 am)30.63 "Hg (Apr 18, 2:20 am)
Low28 °F (Apr 19, 1:20 am)42% (Apr 18, 3:20 pm)29.56 "Hg (Apr 25, 6:20 am)
Average42 °F76%30.04 "Hg
* Reported Apr 15 5:20 pm — Apr 30 5:20 pm, Husum, Weather by CustomWeather, © 2017

Note: Actual official high and low records may vary slightly from our data, if they occured in-between our weather recording intervals... More about our weather records

Advertising

Husum Weather History for the Previous 24 Hours

Scroll right to see more
 ConditionsComfort  
Time TempWeatherWind HumidityBarometerVisibility
5:20 pm
Sun, Apr 30
55 °FRefreshingly cool.18 mph47%30.01 "HgN/A
4:20 pm55 °FRefreshingly cool.17 mph47%30.04 "HgN/A
3:20 pm54 °FCool.22 mph54%30.07 "HgN/A
2:20 pm54 °FCool.17 mph54%30.07 "HgN/A
1:20 pm54 °FCool.15 mph51%30.09 "HgN/A
12:20 pm52 °FCool.15 mph54%30.09 "HgN/A
11:20 am50 °FCool.14 mph62%30.12 "HgN/A
10:20 am48 °FCool.12 mph66%30.12 "HgN/A
9:20 am46 °FCool.9 mph71%30.15 "HgN/A
8:20 am41 °FQuite cool.9 mph81%30.15 "HgN/A
7:20 am39 °FChilly.8 mph87%30.15 "HgN/A
6:20 am36 °FChilly.7 mph93%30.15 "HgN/A
5:20 am36 °FChilly.9 mph93%30.12 "HgN/A
4:20 am37 °FChilly.8 mph87%30.12 "HgN/A
3:20 am37 °FChilly.7 mph87%30.12 "HgN/A
2:20 am37 °FChilly.6 mph93%30.12 "HgN/A
1:20 am37 °FChilly.5 mph93%30.12 "HgN/A
12:20 am39 °FChilly.6 mph87%30.12 "HgN/A
11:20 pm
Sat, Apr 29
37 °FChilly.6 mph87%30.12 "HgN/A
10:20 pm39 °FChilly.3 mph87%30.12 "HgN/A
9:20 pm41 °FQuite cool.3 mph76%30.09 "HgN/A
8:20 pm45 °FQuite cool.9 mph66%30.09 "HgN/A
7:20 pm48 °FCool.9 mph62%30.07 "HgN/A
Weather by CustomWeather, © 2017

See weather overviewHow to use our weather pages